[[{"header":{"parameterUnit":"m.s-1","parameterCategory":1,"la1":30.2991,"la2":30.254,"lo1":-89.0895,"lo2":-89.0444,"dy":0.0017,"dx":0.0017,"nx":28,"ny":28,"refTime":"2025-01-01T09:00:00:Z","depth":0,"parameterNumber":2,"parameterNumberName":"U-component_of_WINDS"},"data":[0,0,0,0,0,0,0,0,0,0,0,0,0,0,0,0,0,0,0,0,0,0,0,0,0,0,0,0,0,0,0,0,0,0,0,0,0,0,0,0,0,0,0,0,0,0,0,0,0,0,0,0,0,0,0,0,0,0,-2.2871,-2.2872,0,-2.2938,-2.2939,-2.2939,-2.2888,-2.2886,-2.2884,-2.2882,-2.2954,-2.2958,-2.2962,0,0,0,0,0,0,0,0,0,0,0,0,0,-2.2703,-2.2707,-2.2871,-2.2872,-2.2873,-2.2938,-2.2939,-2.294,-2.2889,-2.2886,-2.2883,-2.2881,-2.2953,-2.2957,-2.2962,0,0,0,0,0,0,0,0,0,0,0,0,0,-2.2774,-2.2708,-2.2871,-2.2855,-2.2854,-2.2938,-2.2939,-2.294,-2.2889,-2.2886,-2.2883,-2.2879,-2.2951,-2.2957,-2.2963,-2.3067,0,0,-2.2981,-2.2984,0,0,0,0,0,0,0,0,-2.277,-2.278,-2.2857,-2.2856,-2.2856,-2.2901,-2.2906,-2.2983,-2.289,-2.2876,-2.2882,-2.2878,-2.2939,-2.2946,-2.2966,-2.307,-2.3073,-2.2982,-2.2985,-2.2988,-2.299,0,0,0,0,0,0,0,-2.2765,-2.2777,-2.2898,-2.2858,-2.2857,-2.2846,-2.2852,-2.292,-2.2926,-2.2877,-2.2873,-2.2882,-2.2938,-2.296,-2.2967,-2.3074,-2.2981,-2.2987,-2.299,-2.2993,-2.3267,-2.327,0,0,0,0,0,0,-2.2761,-2.2773,-2.2895,-2.29,-2.2804,-2.2852,-2.2859,-2.289,-2.2925,-2.2927,-2.2885,-2.2879,-2.2952,-2.296,-2.297,-2.3093,-2.2988,-2.2993,-2.2997,-2.3263,-2.3268,-2.3272,0,0,0,0,0,0,-2.2758,-2.2773,-2.2893,-2.2836,-2.285,-2.2858,-2.2894,-2.2893,-2.2915,-2.2931,-2.2932,-2.2906,-2.295,-2.2961,-2.3043,-2.3095,-2.2996,-2.3002,-2.3259,-2.3265,-2.327,-2.3341,0,0,0,0,0,0,-2.2753,-2.2772,-2.281,-2.2837,-2.2853,-2.2963,-2.2897,-2.2897,-2.2925,-2.2918,-2.2951,-2.2953,-2.2948,-2.3034,-2.3049,-2.3101,-2.3006,-2.3254,-2.3261,-2.3268,-2.3334,-2.3348,-2.336,0,0,0,0,0,-2.2747,-2.2828,-2.2812,-2.2827,-2.2901,-2.2966,-2.2976,-2.2968,-2.2929,-2.2969,-2.2979,-2.2952,-2.3087,-2.3043,-2.3059,-2.3114,-2.3251,-2.3259,-2.3267,-2.3328,-2.3345,-2.336,0,0,0,0,0,0,-2.2809,-2.2831,-2.2814,-2.2905,-2.2934,-2.2958,-2.3007,-2.2986,-2.3027,-2.302,-2.3009,-2.3017,-2.3102,-2.3117,-2.3067,-2.3217,-2.3163,-2.3175,-2.3204,-2.322,-2.3233,-2.3227,-2.3011,0,0,0,0,0,-2.2833,-2.2883,-2.29,-2.298,-2.2995,-2.2999,-2.3027,-2.3018,-2.3048,-2.306,-2.3076,-2.3107,-2.3157,-2.319,-2.3236,-2.3336,-2.3343,-2.3382,-2.3396,-2.3406,-2.3416,-2.3471,-2.3488,-2.3299,-2.3299,-2.3299,0,0,-2.2883,-2.2902,-2.2934,-2.2992,-2.3014,-2.3067,-2.3009,-2.3068,-2.3107,-2.3069,-2.3146,-2.316,-2.3194,-2.3285,-2.3326,-2.33,-2.3471,-2.3417,-2.3426,-2.343,-2.3481,-2.3499,-2.3515,-2.3304,-2.3303,-2.3303,0,0,-2.3001,-2.3021,-2.3088,-2.3111,-2.3143,-2.3146,-2.3162,-2.3189,-2.3196,-2.3273,-2.3246,-2.3294,-2.3379,-2.3404,-2.3428,-2.3558,-2.3535,-2.3574,-2.3642,-2.3695,-2.371,-2.3723,-2.3769,-2.3786,-2.3584,-2.3584,-2.3584,0,-2.306,-2.3137,-2.3126,-2.3187,-2.3213,-2.3181,-2.325,-2.3273,-2.332,-2.334,-2.3309,-2.3416,-2.3437,-2.3533,-2.3565,-2.3586,-2.3605,-2.3569,-2.3709,-2.3722,-2.3734,-2.3777,-2.3795,-2.3589,-2.3588,-2.3588,-2.3587,0,-2.3208,-2.3262,-2.3313,-2.3358,-2.339,-2.3455,-2.3455,-2.349,-2.3479,-2.3485,-2.3564,-2.3588,-2.3639,-2.3662,-2.3652,-2.3757,-2.374,-2.371,-2.3655,-2.3757,-2.3797,-2.3814,-2.3595,-2.3593,-2.3592,-2.3591,0,0,-2.3365,-2.3403,-2.3422,-2.3441,-2.3476,-2.3518,-2.3582,-2.3631,-2.3661,-2.3695,-2.3748,-2.3822,-2.3794,-2.3822,-2.3815,-2.3862,-2.3962,-2.3826,-2.3826,-2.3849,-2.408,-2.4101,-2.4121,-2.3948,-2.3951,-2.3953,-2.4077,0,-2.3484,-2.3593,-2.3586,-2.3689,-2.3739,-2.371,-2.3766,-2.3794,-2.3802,-2.3847,-2.3856,-2.3908,-2.3867,-2.3884,-2.3929,-2.394,-2.4008,-2.3932,-2.3998,-2.4,-2.3988,-2.4142,-2.4165,-2.428,-2.4092,-2.4095,-2.4097,0,-2.3637,-2.3675,-2.3783,-2.381,-2.3831,-2.3881,-2.3925,-2.3968,-2.4,-2.4002,-2.4033,-2.4019,-2.4085,-2.403,-2.4121,-2.4069,-2.4096,-2.4107,-2.4111,-2.4116,-2.4054,-2.415,-2.4316,-2.4333,-2.4122,-2.412,-2.4118,0,-2.374,-2.3818,-2.3893,-2.3911,-2.3944,-2.398,-2.3996,-2.4024,-2.4054,-2.4094,-2.4113,-2.416,-2.4186,-2.4223,-2.4223,-2.4183,-2.4315,-2.426,-2.4319,-2.4319,-2.4347,-2.4345,-2.4519,-2.4367,-2.4367,-2.4366,-2.4366,0,-2.3873,-2.394,-2.3939,-2.3985,-2.406,-2.4052,-2.4127,-2.4139,-2.4165,-2.4213,-2.4192,-2.4239,-2.4235,-2.4283,-2.4283,-2.4358,-2.4371,-2.4375,-2.4374,-2.4376,-2.4375,-2.4393,-2.4384,-2.4371,-2.437,-2.4369,-2.4368,0,-2.3999,-2.4001,-2.4081,-2.4106,-2.4114,-2.4168,-2.419,-2.4234,-2.4241,-2.4303,-2.4317,-2.4327,-2.4382,-2.4385,-2.4449,-2.445,-2.4541,-2.4532,-2.453,-2.4527,-2.4586,-2.458,-2.4776,-2.4801,-2.4634,-2.4635,-2.4637,0,-2.4083,-2.4134,-2.4164,-2.4194,-2.4212,-2.4262,-2.4292,-2.4287,-2.4319,-2.436,-2.4399,-2.4452,-2.4493,-2.4583,-2.4597,-2.4646,-2.4637,-2.4703,-2.4645,-2.4645,-2.4637,-2.4634,-2.4639,-2.4714,-2.4716,-2.4717,-2.4718,0,-2.4231,-2.423,-2.4273,-2.4318,-2.4354,-2.4389,-2.4422,-2.4448,-2.4447,-2.4485,-2.454,-2.4573,-2.4638,-2.469,-2.4738,-2.4756,-2.4738,-2.4737,-2.4753,-2.4755,-2.4751,-2.4753,-2.4559,-2.4732,-2.4731,-2.473,-2.4729,-2.4728,-2.4339,-2.4382,-2.441,-2.446,-2.4483,-2.4515,-2.4557,-2.4569,-2.4614,-2.4665,-2.466,-2.4722,-2.4754,-2.4816,-2.4838,-2.4886,-2.4864,-2.4888,-2.4893,-2.4899,-2.4905,-2.4744,-2.4895,-2.4895,-2.4895,-2.4894,-2.4894,0,-2.4485,-2.4502,-2.4547,-2.4593,-2.4632,-2.461,-2.4646,-2.468,-2.4734,-2.4765,-2.4806,-2.487,-2.4921,-2.494,-2.499,-2.5026,-2.5019,-2.5039,-2.5036,-2.504,-2.4922,-2.4903,-2.5044,-2.5044,-2.5044,-2.5044,-2.5044,-2.5044,-2.4566,-2.4638,-2.4641,-2.4725,-2.4742,-2.4801,-2.4823,-2.4852,-2.4876,-2.4948,-2.499,-2.5002,-2.5028,-2.508,-2.5127,-2.5131,-2.515,-2.5174,-2.5175,-2.5064,-2.5049,-2.5034,-2.5016,-2.5179,-2.5179,-2.5289,-2.529,-2.5291]},{"header":{"parameterUnit":"m.s-1","parameterCategory":1,"la1":30.2991,"la2":30.254,"lo1":-89.0895,"lo2":-89.0444,"dy":0.0017,"dx":0.0017,"nx":28,"ny":28,"refTime":"2025-01-01T09:00:00:Z","depth":0,"parameterNumber":3,"parameterNumberName":"V-component_of_WINDS"},"data":[0,0,0,0,0,0,0,0,0,0,0,0,0,0,0,0,0,0,0,0,0,0,0,0,0,0,0,0,0,0,0,0,0,0,0,0,0,0,0,0,0,0,0,0,0,0,0,0,0,0,0,0,0,0,0,0,0,0,0.5537,0.5538,0,0.5631,0.5632,0.5633,0.5703,0.5704,0.5705,0.5705,0.5798,0.58,0.5802,0,0,0,0,0,0,0,0,0,0,0,0,0,0.5417,0.5419,0.5537,0.5538,0.5539,0.563,0.5632,0.5633,0.5703,0.5704,0.5705,0.5706,0.5798,0.58,0.5802,0,0,0,0,0,0,0,0,0,0,0,0,0,0.5486,0.542,0.5536,0.5585,0.559,0.563,0.5632,0.5633,0.5703,0.5704,0.5705,0.5706,0.5797,0.58,0.5803,0.58,0,0,0.5811,0.5812,0,0,0,0,0,0,0,0,0.5482,0.549,0.5577,0.5582,0.5588,0.5656,0.5624,0.5689,0.5703,0.566,0.5705,0.5706,0.575,0.5757,0.5772,0.5805,0.5809,0.5811,0.5813,0.5814,0.5815,0,0,0,0,0,0,0,0.5477,0.5486,0.5574,0.5578,0.5585,0.5602,0.5613,0.5637,0.5698,0.5664,0.5669,0.568,0.5753,0.5769,0.5775,0.581,0.5811,0.5814,0.5816,0.5817,0.5848,0.5848,0,0,0,0,0,0,0.5465,0.5482,0.5571,0.5577,0.5536,0.5603,0.5615,0.5633,0.5698,0.5709,0.5679,0.5683,0.5764,0.5772,0.5779,0.5782,0.5814,0.5817,0.5819,0.5849,0.5848,0.5847,0,0,0,0,0,0,0.5462,0.5472,0.5567,0.5531,0.5544,0.5604,0.5624,0.5635,0.5651,0.571,0.5721,0.5684,0.5765,0.5775,0.5795,0.5786,0.5818,0.5821,0.585,0.5849,0.5848,0.5788,0,0,0,0,0,0,0.5458,0.5471,0.547,0.553,0.5546,0.5582,0.5623,0.5636,0.5656,0.5662,0.5717,0.5728,0.5767,0.5791,0.5798,0.5791,0.5823,0.5851,0.585,0.5848,0.5791,0.5785,0.5779,0,0,0,0,0,0.5454,0.5449,0.547,0.548,0.5547,0.5581,0.559,0.5636,0.5655,0.5655,0.5694,0.5726,0.5786,0.5792,0.5801,0.5794,0.5852,0.585,0.5848,0.5793,0.5786,0.5779,0,0,0,0,0,0,0.5384,0.5457,0.5482,0.5496,0.5532,0.5593,0.5595,0.5627,0.5657,0.5661,0.5717,0.5729,0.5744,0.5771,0.5777,0.5797,0.5823,0.5823,0.5779,0.5772,0.5766,0.5759,0.5825,0,0,0,0,0,0.5371,0.5394,0.5456,0.5462,0.5479,0.5534,0.5551,0.5583,0.5623,0.5638,0.5678,0.5714,0.5742,0.5758,0.5786,0.5795,0.5809,0.5795,0.5789,0.5784,0.5784,0.5792,0.5787,0.5841,0.5841,0.5841,0,0,0.5343,0.5386,0.5396,0.545,0.5481,0.5504,0.5546,0.5567,0.5584,0.5641,0.5664,0.5694,0.5738,0.5754,0.5762,0.5777,0.5772,0.5782,0.5778,0.578,0.579,0.5785,0.578,0.584,0.584,0.584,0,0,0.5304,0.5338,0.5348,0.538,0.5428,0.5465,0.5468,0.5525,0.5548,0.5572,0.5615,0.5636,0.5682,0.5712,0.5733,0.5708,0.574,0.5716,0.5686,0.5694,0.5689,0.5686,0.5678,0.5675,0.5715,0.5715,0.5715,0,0.5263,0.5298,0.5349,0.5369,0.5391,0.5445,0.5456,0.5484,0.5539,0.5553,0.5569,0.563,0.5663,0.5687,0.5681,0.5696,0.5701,0.571,0.5686,0.5683,0.5681,0.5674,0.5671,0.5712,0.5712,0.5712,0.5713,0,0.5246,0.527,0.5273,0.5326,0.5349,0.5364,0.5417,0.5434,0.5465,0.55,0.5525,0.5568,0.5606,0.5615,0.5644,0.5644,0.5651,0.5676,0.5703,0.5672,0.5666,0.5664,0.5707,0.5708,0.5709,0.571,0,0,0.5164,0.5248,0.5248,0.5274,0.5332,0.5352,0.537,0.5409,0.5423,0.546,0.5476,0.5515,0.5539,0.5563,0.5597,0.5604,0.5583,0.5628,0.563,0.5619,0.5587,0.5569,0.5565,0.5605,0.5604,0.5604,0.5584,0,0.5135,0.5171,0.5218,0.5238,0.5262,0.5315,0.5331,0.5368,0.5402,0.5427,0.5464,0.5491,0.552,0.5536,0.5545,0.5584,0.5578,0.5586,0.5621,0.5622,0.5609,0.5562,0.5542,0.552,0.5582,0.5581,0.5581,0,0.5105,0.5141,0.5163,0.5222,0.5234,0.5247,0.5289,0.5312,0.5356,0.538,0.5408,0.5446,0.5468,0.5493,0.5524,0.5529,0.5546,0.5568,0.5568,0.5573,0.5599,0.5566,0.5515,0.5511,0.5578,0.5578,0.5579,0,0.5045,0.5098,0.5119,0.514,0.5208,0.5217,0.5246,0.5291,0.5313,0.5348,0.5363,0.54,0.5421,0.5449,0.5495,0.5509,0.5523,0.5551,0.5544,0.5542,0.5544,0.5543,0.5495,0.5554,0.5554,0.5554,0.5554,0,0.5007,0.5019,0.5094,0.5106,0.5122,0.5177,0.5191,0.5224,0.5264,0.5285,0.5333,0.5351,0.5411,0.5437,0.5473,0.5495,0.5503,0.5524,0.5533,0.552,0.5517,0.5532,0.5535,0.5553,0.5553,0.5554,0.5554,0,0.4942,0.4992,0.5019,0.5083,0.5099,0.5108,0.5163,0.5178,0.5215,0.5241,0.525,0.5308,0.5341,0.539,0.5437,0.5462,0.5478,0.5493,0.5463,0.5469,0.546,0.546,0.5419,0.5417,0.5476,0.5476,0.5475,0,0.4915,0.4926,0.4992,0.501,0.5038,0.5065,0.5088,0.5143,0.5164,0.5217,0.5226,0.5263,0.5295,0.5345,0.5391,0.5428,0.5445,0.5428,0.545,0.5437,0.5446,0.5445,0.5447,0.5423,0.5422,0.5421,0.542,0,0.4862,0.4887,0.4919,0.496,0.4986,0.502,0.5057,0.5069,0.5131,0.5153,0.5188,0.5213,0.5263,0.5299,0.5343,0.5372,0.5407,0.5413,0.5414,0.54,0.5383,0.5393,0.5449,0.5414,0.5414,0.5415,0.5415,0.5415,0.4816,0.4829,0.4878,0.4912,0.4946,0.498,0.4998,0.5038,0.5069,0.5114,0.5144,0.5178,0.5223,0.5286,0.5314,0.5341,0.5356,0.5356,0.5356,0.5356,0.5351,0.5378,0.5349,0.5349,0.5349,0.535,0.535,0,0.4767,0.4802,0.4832,0.4883,0.491,0.4942,0.4985,0.5005,0.5035,0.5075,0.5107,0.5147,0.5183,0.5233,0.5273,0.5285,0.5302,0.5294,0.5294,0.53,0.5335,0.5331,0.528,0.528,0.528,0.528,0.528,0.528,0.4744,0.4769,0.48,0.4842,0.4876,0.491,0.4932,0.4964,0.4997,0.5041,0.5072,0.5105,0.5149,0.5193,0.5228,0.5242,0.5254,0.5241,0.526,0.5291,0.5298,0.5304,0.5301,0.5243,0.5243,0.5223,0.5223,0.5223]}]]